Regional Weather Roundup
Issued by NWS Bismarck, ND

Home | Current Version | Previous Version | Text Only | Print | Product List | Glossary On
Versions: 1 2 3 4 5 6 7 8 9 10 11 12 13 14 15 16 17 18 19 20 21 22 23 24 25 26 27 28 29 30 31 32 33 34 35 36 37 38 39 40 41 42 43 44 45 46 47 48 49 50
000
ASUS43 KBIS 052210
RWRBIS

NWR BROADCAST TEXT
NATIONAL WEATHER SERVICE BISMARCK ND
400 PM CST MON DEC 05 2016

NOTE: "FAIR" INDICATES FEW OR NO CLOUDS BELOW 12,000 FEET WITH NO
SIGNIFICANT WEATHER AND/OR OBSTRUCTIONS TO VISIBILITY.


CITY           SKY/WX    TMP DP  RH WIND       PRES   REMARKS
WILLISTON      SNOW      13   9  84 NW33G40   29.78R VSB 1/4 WCI  -9
MINOT          CLOUDY    23  19  85 W21       29.60R WCI   8
MINOT AFB      CLOUDY    22  20  91 NW23      29.59S FOG     WCI   6
BISMARCK       LGT SNOW  24  19  81 NW22G35   29.64R WCI   9
DICKINSON      SNOW      13   9  84 NW29G39   29.70R VSB 1/2 WCI  -8
GARRISON         N/A     23  18  81 NW26G33   29.61S WCI   6
HETTINGER ARPT LGT SNOW  18  12  77 NW29G45   29.73R VSB 1   WCI  -1
JAMESTOWN      LGT SNOW  28  27  96 NE9       29.52R VSB 1   WCI  19
BEACH          SNOW      10   9  92 NW26G36   29.84R VSB 1/2 WCI -11
CARRINGTON     LGT SNOW  28  27  93 NE9       29.59R WCI  20
HAZEN          FLURRIES  21  16  79 W25G31    29.69R WCI   4
RUGBY          LGT SNOW  25  25 100 S3        29.59S VSB 1
STANLEY        SNOW      16  18 100 NW23G35   29.66R VSB 1/2 WCI  -2
TIOGA          HVY SNOW  14  14 100 NW36G49   29.70R VSB<1/4 WCI  -8
WATFORD CITY   SNOW      12   9  85 NW23G35   29.77R VSB 1/2 WCI  -7
$$

CITY           SKY/WX    TMP DP  RH WIND       PRES   REMARKS
GRAND FORKS    CLOUDY    32  28  85 NE9       29.61F
GRAND FORKS AF CLOUDY    30  27  90 NE9       29.61S
DEVILS LAKE    LGT SNOW  26  25  96 NE7       29.60R FOG     WCI  18
FARGO          CLOUDY    36  28  73 E10       29.53S
CANDO          LGT SNOW  27  27 100 E6        29.63R VSB 1   WCI  20
CAVALIER         N/A     28  27  93 E9        29.66S WCI  20
GRAFTON        CLOUDY    30  30 100 NE10      29.66R
GWINNER        CLOUDY    34  34 100 E9        29.48F
LANGDON        FOG       27  27 100 MISG      29.62S VSB 1/4
ROLLA          LGT SNOW  25  25 100 SE8       29.61R VSB 3/4 WCI  16
WALHALLA         N/A     28  28 100 NE6       29.67S
$$

CITY           SKY/WX    TMP DP  RH WIND       PRES   REMARKS
ABERDEEN       CLOUDY    37  29  72 W10       29.49R
MOBRIDGE       SNOW      26  21  81 NW32G43   29.60R VSB 1/2 WCI   9
BUFFALO          N/A     20  10  65 NW39G58   29.70R WCI  -1
RAPID CITY     MOCLDY    25  11  55 NW31G46   29.75R WCI   8
GLASGOW        CLOUDY     9  -1  64 NW26G39   29.98R WCI -13
SIDNEY         LGT SNOW  12   7  80 NW30G37   29.84R VSB 3/4 WCI -10
WOLF POINT     CLOUDY    12   2  64 NW25G35   29.96R WCI  -8
GLENDIVE       LGT SNOW  10   5  80 NW25G39   29.88R WCI -11
MILES CITY     FLURRIES  15   5  64 NW24G36   29.96R WCI  -4
BAKER          FLURRIES  13   4  67 NW32G40   29.84R WCI  -9
$$

CITY           SKY/WX    TMP DP  RH WIND       PRES   REMARKS
BILLINGS       CLOUDY    23   2  40 N16G29    29.95R WCI  10
GREAT FALLS    CLOUDY    12   4  70 N7        30.04S WCI   1
REGINA         LGT SNOW  16  10  79 NW24      29.85R BLWGSNOWWCI  -3
ESTEVAN        HVY SNOW  18  16  93 NW31G40   29.70R VSB 1/8 WCI  -2
$$





USA.gov is the U.S. government's official web portal to all federal, state and local government web resources and services.